Weather History for Dubuque, IA

Change the Weather History Date:

Tuesday, February 4, 2014

  Actual Average Record
Temperature  
Mean Temperature 11 °F 21 °F  
Max Temperature 16 °F 29 °F 58 °F (1890)
Min Temperature 5 °F 13 °F -23 °F (1996)
Degree Days  
Heating Degree Days 54 44  
Month to date heating degree days 233 179  
Since 1 July heating degree days 5075 4416  
Cooling Degree Days 0 0  
Month to date cooling degree days 0 0  
Year to date cooling degree days 0 0  
Moisture  
Dew Point 7 °F    
Average Humidity 79    
Maximum Humidity 88    
Minimum Humidity 70    
Precipitation  
Precipitation 0.07 in 0.04 in 0.67 in (1986)
Month to date precipitation 0.26 0.17  
Year to date precipitation 1.21 1.34  
Snow  
Snow 0.70 in 0.40 in - ()
Month to date snowfall 2.7 1.5  
Since 1 July snowfall 39.1 26.1  
Snow Depth 6.00 in    
Sea Level Pressure  
Sea Level Pressure 30.32 in    
Wind  
Wind Speed 9 mph (NNE)    
Max Wind Speed 18 mph    
Max Gust Speed 25 mph    
Visibility 5 miles    
Events Snow    
T = Trace of Precipitation, MM = Missing Value Source: NWS Daily Summary

Daily Weather History Graph

Daily Weather History Graph

Search for Another Location

Airport:

Trip Planner

Search our weather history database for the weather conditions in past years. The results will help you decide how hot, cold, wet, or windy it might be!

Date:

Astronomy

Feb. 04, 2014 Rise Set
Actual Time 7:13 AM CST 5:20 PM CST
Civil Twilight 6:43 AM CST 5:50 PM CST
Nautical Twilight 6:10 AM CST 6:23 PM CST
Astronomical Twilight 5:37 AM CST 6:56 PM CST
Moon 9:43 AM CST (2/4) 11:23 PM CST (2/4)
Length of Visible Light 11h 06m
Length of Day
10h 07m
Waxing Crescent, 29% of the Moon is Illuminated
Feb 4
Waxing Crescent
Feb 6
First Quarter
Feb 14
Full
Feb 22
Last Quarter
Mar 1
New

Hourly Weather History & Observations

Time (CST) Temp. Windchill Dew Point Humidity Pressure Visibility Wind Dir Wind Speed Gust Speed Precip Events Conditions
12:53 AM 10.0 °F - 3.0 °F 73% 30.41 in 10.0 mi Calm Calm - N/A   Overcast
1:53 AM 10.9 °F - 3.9 °F 73% 30.40 in 10.0 mi Calm Calm - N/A   Overcast
2:53 AM 10.0 °F - 3.0 °F 73% 30.39 in 10.0 mi Calm Calm - N/A   Partly Cloudy
3:53 AM 9.0 °F - 3.9 °F 80% 30.41 in 10.0 mi Calm Calm - N/A   Overcast
4:53 AM 9.0 °F 2.4 °F 1.9 °F 73% 30.41 in 10.0 mi NE 3.5 mph - N/A   Mostly Cloudy
5:53 AM 7.0 °F -1.7 °F 1.9 °F 80% 30.42 in 8.0 mi NNE 4.6 mph - N/A   Clear
6:53 AM 5.0 °F - 1.0 °F 84% 30.43 in 7.0 mi Calm Calm - N/A   Overcast
7:53 AM 9.0 °F 0.6 °F 3.0 °F 77% 30.44 in 8.0 mi NE 4.6 mph - N/A   Overcast
8:53 AM 10.0 °F 0.4 °F 3.9 °F 76% 30.44 in 6.0 mi NE 5.8 mph - N/A   Haze
9:53 AM 10.9 °F 1.4 °F 3.9 °F 73% 30.42 in 6.0 mi NNE 5.8 mph - N/A   Haze
10:53 AM 12.0 °F 2.7 °F 5.0 °F 73% 30.42 in 6.0 mi NE 5.8 mph - N/A   Haze
11:53 AM 14.0 °F 1.2 °F 6.1 °F 71% 30.38 in 6.0 mi NNE 10.4 mph - N/A   Haze
12:53 PM 14.0 °F -0.2 °F 7.0 °F 74% 30.35 in 6.0 mi NE 12.7 mph - N/A   Haze
1:53 PM 15.1 °F 2.5 °F 8.1 °F 74% 30.35 in 6.0 mi NNE 10.4 mph - N/A   Haze
2:53 PM 15.1 °F 2.5 °F 8.1 °F 74% 30.34 in 6.0 mi NE 10.4 mph - N/A   Haze
3:17 PM 15.1 °F 0.5 °F 9.0 °F 77% 30.22 in 2.5 mi NE 13.8 mph - N/A   Haze
3:25 PM 15.1 °F 1.1 °F 9.0 °F 77% 30.22 in 3.0 mi NE 12.7 mph - N/A   Haze
3:53 PM 16.0 °F 1.7 °F 9.0 °F 74% 30.30 in 4.0 mi NE 13.8 mph - N/A   Haze
4:53 PM 16.0 °F 1.7 °F 8.1 °F 71% 30.29 in 9.0 mi NE 13.8 mph - N/A   Overcast
5:53 PM 16.0 °F 1.1 °F 8.1 °F 71% 30.29 in 10.0 mi NNE 15.0 mph - N/A   Overcast
6:53 PM 16.0 °F 2.3 °F 8.1 °F 71% 30.29 in 4.0 mi NNE 12.7 mph - N/A   Haze
7:30 PM 15.1 °F -0.1 °F 9.0 °F 77% 30.20 in 2.5 mi NNE 15.0 mph - N/A   Haze
7:43 PM 15.1 °F 0.5 °F 10.0 °F 80% 30.19 in 1.8 mi NNE 13.8 mph - 0.00 in Snow Light Snow
7:53 PM 15.1 °F -0.1 °F 10.9 °F 84% 30.26 in 1.5 mi NNE 15.0 mph - 0.00 in Snow Light Snow
8:53 PM 15.1 °F -1.1 °F 12.0 °F 88% 30.25 in 1.2 mi NNE 17.3 mph - 0.02 in Snow Light Snow
9:25 PM 15.1 °F 0.5 °F 12.0 °F 88% 30.17 in 1.0 mi NNE 13.8 mph - 0.01 in Snow Light Snow
9:45 PM 15.1 °F 1.1 °F 12.0 °F 88% 30.18 in 1.2 mi NNE 12.7 mph - 0.02 in Snow Light Snow
9:53 PM 15.1 °F -0.1 °F 12.0 °F 88% 30.24 in 1.5 mi NNE 15.0 mph - 0.02 in Snow Light Snow
10:53 PM 15.1 °F -0.6 °F 12.0 °F 88% 30.24 in 1.2 mi NNE 16.1 mph - 0.02 in Snow Light Snow
11:53 PM 16.0 °F 1.7 °F 12.0 °F 84% 30.24 in 1.5 mi NNE 13.8 mph - 0.02 in Snow Light Snow